CST,Max TemperatureF,Mean TemperatureF,Min TemperatureF,Max Dew PointF,MeanDew PointF,Min DewpointF,Max Humidity, Mean Humidity, Min Humidity, Max Sea Level PressureIn, Mean Sea Level PressureIn, Min Sea Level PressureIn, Max VisibilityMiles, Mean VisibilityMiles, Min VisibilityMiles, Max Wind SpeedMPH, Mean Wind SpeedMPH, Max Gust SpeedMPH,PrecipitationIn, CloudCover, Events, WindDirDegrees
2013-1-1,16,4,-7,3,-3,-13,84,70,48,30.23,30.17,30.12,10,10,10,8,3,,0.00,1,,279
2013-1-2,24,18,13,17,9,2,77,66,49,30.13,30.07,30.02,10,10,10,12,5,,0.00,5,,206
2013-1-3,27,19,11,20,16,5,86,78,68,30.22,30.14,30.03,10,8,4,15,10,17,0.00,5,,272
2013-1-4,31,21,11,17,14,5,82,69,53,30.17,30.12,30.06,10,10,10,18,8,22,0.00,0,,239
2013-1-5,36,21,6,32,21,2,94,82,66,30.19,30.02,29.85,10,9,4,15,5,22,0.00,3,,218
2013-1-6,32,21,10,25,17,7,93,77,68,30.26,30.09,29.85,10,10,5,16,11,22,0.00,4,,286
2013-1-7,37,25,13,25,18,9,84,68,51,30.24,30.09,30.00,10,10,10,18,7,28,0.00,0,,214
2013-1-8,39,26,14,30,25,12,96,78,65,30.07,30.00,29.91,10,8,1,17,5,23,0.00,1,,189
2013-1-9,41,28,16,30,24,13,85,68,46,30.44,30.21,29.90,10,10,10,23,13,33,0.00,0,,259
2013-1-10,39,26,12,36,24,10,97,81,57,30.46,30.23,29.84,10,9,2,14,4,20,0.09,3,,118
2013-1-11,46,40,34,45,40,35,99,97,90,29.82,29.66,29.56,10,3,0,16,6,23,0.02,7,,182
2013-1-12,49,36,23,43,26,14,90,72,58,30.01,29.82,29.58,10,10,3,26,13,36,0.00,4,,249
2013-1-13,23,18,13,14,8,4,71,66,56,30.19,30.03,29.90,10,10,10,18,11,23,0.00,7,,300
2013-1-14,27,18,8,11,6,3,80,65,41,30.42,30.36,30.21,10,10,10,10,6,,0.00,0,,266
2013-1-15,30,21,12,14,11,8,84,65,42,30.39,30.26,30.04,10,10,10,13,4,16,0.00,0,,208
2013-1-16,36,28,20,29,19,9,87,67,54,30.05,29.88,29.75,10,10,7,20,11,29,0.00,5,,250
2013-1-17,27,20,12,18,8,0,83,57,33,30.37,30.29,30.07,10,10,10,14,8,17,0.00,0,,306
2013-1-18,44,28,12,31,22,8,84,66,51,30.39,30.03,29.80,10,10,7,21,8,32,0.00,2,,198
2013-1-19,47,32,16,32,25,3,78,62,38,29.97,29.77,29.65,10,10,10,36,13,46,0.00,3,,250
2013-1-20,18,12,7,4,-2,-5,64,55,36,30.30,30.20,29.99,10,10,10,25,14,32,0.00,2,,291
2013-1-21,11,6,0,2,-8,-12,76,59,46,30.25,30.18,30.11,10,9,1,18,13,25,0.00,5,,296
2013-1-22,10,2,-5,-4,-9,-13,74,60,46,30.34,30.29,30.25,10,10,10,15,7,21,0.00,1,,288
2013-1-23,20,12,5,14,4,-7,81,65,51,30.41,30.19,30.06,10,7,1,25,8,32,0.00,7,,268
2013-1-24,18,9,0,9,-3,-8,67,60,49,30.63,30.50,30.30,10,10,10,15,8,21,0.00,3,,54
2013-1-25,27,20,14,17,11,5,81,67,51,30.28,30.06,29.90,10,9,2,18,9,25,0.00,7,,248
2013-1-26,25,16,7,13,6,2,78,60,41,30.37,30.30,30.20,10,10,10,12,7,,0.00,2,,243
2013-1-27,34,28,23,34,23,12,97,75,55,30.30,30.09,29.82,10,7,1,17,9,20,0.05,7,,150
2013-1-28,41,38,34,36,34,32,99,91,72,29.92,29.86,29.74,10,7,0,16,4,31,0.04,6,,127
2013-1-29,55,45,35,54,42,35,99,97,89,29.73,29.56,29.48,10,4,0,12,6,,1.28,8,,287
2013-1-30,35,26,16,35,25,10,99,88,72,29.62,29.43,29.33,10,4,0,22,13,29,0.03,8,,340
2013-1-31,16,8,0,10,3,-6,81,70,58,30.14,29.85,29.62,10,7,1,20,14,25,0.00,7,,289